Location: Kauffenheim
(48.8524°N, 8.0278°E)
Time: 18:01:49
(UTC+00:00)

Daily predictions for brighter satellites

Satellite Brightness Start Highest point End
(mag) Time Altitude Azimuth Time Altitude Azimuth Time Altitude Azimuth
Cosmos 1455 2.2 20:07:49 10° N 20:11:40 77° E 20:15:31 10° SSE
Cosmos 1825 Rocket 4.0 20:12:18 10° SSE 20:16:30 44° E 20:20:47 10° NNE
ATLAS CENTAUR R/B 2.5 20:14:50 10° NNW 20:18:11 30° NE 20:21:29 10° ESE
Cosmos 1703 3.5 20:17:18 10° S 20:21:04 51° E 20:24:52 10° NNE
Cosmos 1812 Rocket 4.0 20:17:35 10° NNW 20:21:54 62° W 20:26:09 10° S
COSMOS 2428 3.8 20:17:34 10° SSE 20:22:04 25° ESE 20:26:34 10° NE
Cosmos 1844 3.8 20:17:45 10° NNW 20:23:35 77° ENE 20:29:17 10° SSE
Cosmos 2322 4.1 20:20:25 10° S 20:25:46 43° ESE 20:31:08 10° NE
Cosmos 1602 Rocket 4.3 20:25:34 10° SSW 20:29:55 57° WNW 20:34:20 10° N
Cosmos 2263 Rocket 4.4 20:27:32 10° NW 20:31:24 20° W 20:35:16 10° SW
Nadezhda 1 Rocket 4.4 20:26:05 10° NNW 20:32:28 71° W 20:38:48 10° S
Cosmos 1709 Rocket 4.2 20:26:31 10° S 20:32:40 60° E 20:38:55 10° NNE
MetOp-B 4.5 20:29:22 10° S 20:34:41 68° WSW 20:40:03 10° NNW
Atlas Centaur 2 4.1 20:32:04 10° SSW 20:35:19 15° S 20:38:47 10° SE
Terra 2.7 20:31:44 10° SE 20:36:05 37° ENE 20:40:29 10° N
Cosmos 2237 Rocket 4.0 20:33:40 10° ESE 20:36:05 13° E 20:38:31 10° ENE
CARTOSAT-1 3.9 20:32:58 10° SSE 20:37:10 54° ENE 20:41:23 10° N
Cosmos 2333 4.4 20:32:06 10° S 20:37:31 50° ESE 20:43:01 10° NE
Cosmos 2219 Rocket 2.8 20:32:58 10° S 20:37:59 36° ESE 20:43:03 10° NE
Cosmos 2360 Rocket 2.3 20:34:06 10° SSW 20:39:46 89° WNW 20:45:29 10° NNE
IGS 5A 3.6 20:36:11 10° S 20:40:20 75° WSW 20:44:31 10° NNW
Cosmos 2333 Rocket 2.6 20:42:20 10° S 20:47:42 45° ESE 20:53:08 10° NE
ATLAS 2AS CENTAUR R/B 3.8 20:43:29 10° NW 20:50:49 43° NNE 20:57:36 10° ESE
Cosmos 1315 Rocket 3.4 20:46:57 10° N 20:50:56 47° ENE 20:54:13 14° SE
Resurs 01 Rocket 3.5 20:48:37 10° SSW 20:52:21 27° W 20:56:06 10° NW
Cosmos-2242 3.4 20:50:08 10° NNW 20:54:26 63° W 20:58:45 10° S
Cosmos 1818 3.7 20:49:38 10° SW 20:55:04 80° NW 21:00:34 10° NE
Cosmos 773 Rocket 4.0 20:52:29 10° SSW 20:57:45 70° ESE 21:03:02 10° NNE
SL-16 R/B 4.0 20:53:49 10° WSW 20:58:59 35° NW 21:04:11 10° NNE
Cosmos 2221 3.5 20:55:19 10° N 20:59:23 35° ENE 21:02:29 15° SE
ERS-1 Rocket 3.0 20:56:51 12° SSE 21:01:36 87° WSW 21:06:41 10° NNW
GEOS 3 Rocket 3.7 20:57:49 10° NE 21:03:15 86° SE 21:08:40 10° SW
USA 215 3.3 21:00:12 10° ENE 21:06:38 56° SE 21:13:03 10° SW
Cosmos 2278 Rocket 2.8 21:02:57 10° NNW 21:08:30 50° NE 21:13:09 14° SE
Cosmos 1892 4.3 21:07:01 15° ESE 21:08:45 20° E 21:11:36 10° NE
ATLAS 5 CENTAUR R/B 2.0 21:07:35 10° SW 21:11:45 67° NW 21:16:31 10° NE
Meteor 1-11 4.2 21:06:43 10° S 21:12:21 89° E 21:18:05 10° NNE
Cosmos 1844 Rocket 3.7 21:08:01 10° NW 21:13:10 40° WSW 21:18:16 10° S
Cosmos 1400 Rocket 4.1 21:10:04 10° NNW 21:13:44 36° W 21:17:20 10° SSW
Gblst 52 Del rocket 4.3 21:08:52 10° WNW 21:14:33 82° SSW 21:20:33 12° ESE
SPOT 5 3.1 21:13:56 14° S 21:18:21 72° WSW 21:23:10 10° NNW
Lacrosse 5 rocket 3.6 21:16:54 10° WNW 21:20:27 26° N 21:23:51 10° NE
SL-16 R/B 4.2 21:19:38 10° ESE 21:20:31 10° E 21:21:24 10° E
USA 81 4.1 21:19:58 10° S 21:25:15 80° W 21:30:35 10° N
Cosmos 2058 3.8 21:25:00 21° SE 21:27:08 34° E 21:30:53 10° NNE
BREEZE M DEB (TANK) 3.2 21:25:43 10° W 21:27:31 20° SSW 21:27:39 20° SSW
Cosmos 2181 Rocket 4.3 21:22:19 10° NNW 21:28:38 69° W 21:34:15 13° S
Cosmos 1408 4.1 21:29:05 18° ESE 21:30:12 21° E 21:32:56 10° NE
In-Cosmos 22 Rocket 4.4 21:29:55 19° SSE 21:33:28 48° E 21:38:35 10° NNE
Cosmos 2074 Rocket 4.0 21:29:15 15° S 21:34:26 69° E 21:40:37 10° NNE
TSX-5 3.8 21:31:48 10° NNW 21:35:14 65° ENE 21:37:36 23° SE
Cosmos 1076 Rocket 4.1 21:36:08 23° SSE 21:38:18 40° E 21:42:20 10° NNE
Cosmos 1680 Rocket 4.2 21:35:41 21° SSE 21:38:40 37° ESE 21:43:32 10° NE
USA 267 3.3 21:34:04 13° ESE 21:40:00 89° SW 21:46:37 10° NW
Cosmos 2084 3.9 21:41:24 10° NW 21:45:44 51° SW 21:48:05 24° S
Cosmos 1842 Rocket 3.7 21:41:55 10° NNW 21:46:15 68° W 21:49:02 21° S
JB-3 4.1 21:43:50 10° NNE 21:47:42 77° ESE 21:49:57 24° S
Cosmos 2151 4.4 21:47:18 19° ESE 21:48:52 24° E 21:52:20 10° NE
MTI 3.6 21:48:34 10° NNE 21:51:41 83° WNW 21:53:11 28° SSW
Cosmos 923 Rocket 4.0 21:52:19 19° S 21:56:04 66° ESE 22:01:21 10° NNE
Cosmos 2327 Rocket 4.5 21:52:14 20° S 21:56:37 70° E 22:02:43 10° NNE
ATLAS CENTAUR R/B 2.1 21:53:45 10° NW 21:57:05 32° WSW 21:58:26 24° SSW
Cosmos 1825 3.2 21:58:09 26° ESE 21:59:15 31° E 22:02:37 10° NNE
Cosmos 2369 Rocket 4.4 21:56:26 10° N 22:00:23 19° NE 22:04:19 10° E
ALOS 2 3.9 21:58:03 18° ESE 22:00:31 30° ENE 22:04:23 10° N
Cosmos 1980 3.8 21:56:55 19° S 22:00:54 60° ESE 22:06:28 10° NE
Cosmos 967 Rocket 4.5 21:56:41 10° SSW 22:03:07 75° ESE 22:09:36 10° NE
Cosmos 44 4.5 22:05:15 20° ESE 22:05:23 20° ESE 22:08:33 10° ENE
COSMOS 2428 3.2 22:00:17 10° SW 22:05:53 62° WNW 22:11:33 10° NNE
Cosmos 1869 4.0 22:03:21 10° NNW 22:07:10 46° W 22:09:22 23° SSW
GP-B 4.4 22:05:46 10° NNE 22:09:36 28° E 22:11:23 21° ESE
NOSS 0 Rocket 3.9 22:07:31 12° SSW 22:13:16 84° ESE 22:19:29 10° NNE
Terra 3.2 22:10:33 14° SSW 22:13:53 30° W 22:18:06 10° NNW
Cosmos 1624 Rocket 4.1 22:08:46 10° NNW 22:14:00 67° ENE 22:16:57 26° SE
NOSS 3-4 (A) 3.8 22:07:26 10° NW 22:14:23 87° SW 22:19:46 21° SE
NOSS 3-4 (C) 3.8 22:07:32 10° NW 22:14:30 88° SW 22:19:55 21° SE
Cosmos 2237 Rocket 2.2 22:14:58 19° SSW 22:19:09 76° ESE 22:24:53 10° NNE
Genesis I 3.4 22:18:36 36° S 22:19:47 51° ESE 22:23:35 10° NE
SL-4 R/B 3.5 22:19:54 10° ENE 22:19:54 10° ENE 22:19:55 10° ENE
Cosmos 2344 3.7 22:16:02 17° SSW 22:21:48 55° ESE 22:29:33 10° NE
Cosmos 2219 Rocket 3.3 22:16:31 10° SW 22:21:50 44° NW 22:27:13 10° NNE
Elektron 1 4.3 22:21:21 25° SSW 22:23:10 74° SE 22:28:41 10° NE
Atlas Centaur 2 4.5 22:20:25 10° SW 22:21:21 11° SSW 22:21:21 11° SSW
DELTA 2 R/B (1) 4.3 22:24:53 10° SW 22:29:40 30° S 22:30:03 29° SSE
Thor Agena Rocket 3.4 22:25:13 10° NNE 22:30:23 86° ESE 22:33:18 26° SSW
Cosmos 2333 Rocket 3.7 22:26:51 10° WSW 22:32:06 37° NW 22:37:25 10° NNE
Cosmos 2221 4.2 22:33:11 10° NNW 22:36:46 25° W 22:39:20 15° SW
Iridium 2 4.1 22:37:18 10° NNW 22:41:03 54° W 22:42:26 34° SSW
BREEZE-M DEB (TANK) 1.2 22:37:34 10° WNW 22:41:16 68° SSW 22:41:22 67° S
Cosmos 1371 Rocket 4.1 22:36:31 10° NNW 22:41:45 67° WSW 22:44:15 31° S
ATLAS 2AS CENTAUR R/B 2.9 22:34:47 10° NW 22:42:19 69° SW 22:46:25 27° SSE
EO 1 Del DPAF 3.3 22:39:43 10° N 22:43:29 71° WNW 22:44:59 34° SSW
Cosmos 1892 4.1 22:41:59 18° SW 22:44:14 33° WNW 22:47:43 10° N
MOS 1-B Rocket 4.4 22:37:24 10° NNE 22:45:18 88° WNW 22:49:57 22° SSW
Cosmos 1766 Rocket 3.7 22:44:24 37° SSE 22:45:56 59° E 22:50:17 10° NNE
Gbstr 26 Del rocket 4.5 22:49:28 19° ESE 22:49:28 19° ESE 22:51:14 10° E
Okean 3 Rocket 3.6 22:47:03 37° S 22:48:45 73° E 22:53:12 10° NNE
Cosmos 1328 Rocket 3.7 22:44:31 10° N 22:48:48 60° ENE 22:50:25 35° SE
Aureole 2 Rocket 1.7 22:46:01 10° NNW 22:48:51 88° ENE 22:48:59 80° SE
USA 215 3.7 22:43:16 10° NE 22:49:46 64° NNW 22:56:13 10° WSW
Cosmos 1606 2.7 22:47:16 10° N 22:51:10 80° E 22:52:19 44° SSE
Cosmos 2112 Rocket 4.3 22:48:24 20° SW 22:52:11 69° WNW 22:57:33 10° NNE
Cosmos 2278 Rocket 3.3 22:47:26 10° NW 22:52:21 31° WSW 22:54:59 21° SSW
Cosmos 2297 3.7 22:48:22 10° NNW 22:54:09 88° ENE 22:57:11 29° SSE
Cosmos 2218 Rocket 4.2 22:50:54 28° SSE 22:54:15 62° E 23:00:29 10° NNE
Cosmos 158 Rocket 4.3 22:52:56 18° SW 22:56:23 57° WNW 23:01:15 10° NNE
ATLAS 5 CENTAUR R/B 4.5 22:53:55 10° WNW 22:57:21 21° NNW 23:01:09 10° NNE
Cosmos 1420 Rocket 4.0 22:52:41 10° NNW 22:58:00 82° ENE 23:00:36 31° SSE
Cosmos 2366 rocket 4.2 22:56:35 29° SSE 22:59:56 65° E 23:06:14 10° NNE
Lacrosse 5 rocket 2.8 22:56:42 10° NW 23:00:28 35° NNE 23:04:01 10° E
Cosmos 1943 Rocket 2.8 22:55:11 10° NNW 23:00:46 54° NE 23:04:40 19° SE
Cosmos 1633 3.8 23:01:11 26° ESE 23:01:46 28° E 23:04:54 10° NNE
SL-16 R/B 2.2 23:00:46 31° S 23:03:30 65° ESE 23:09:08 10° NNE
Cosmos 1408 4.1 23:03:24 20° WSW 23:05:04 29° WNW 23:08:14 10° N
Cosmos 2056 Rocket 4.0 23:00:25 10° NNW 23:05:39 50° WSW 23:07:58 30° SSW
Cosmos 1959 Rocket 4.4 23:06:20 30° S 23:09:32 77° E 23:15:46 10° NNE
YAOGAN 11 4.4 23:09:09 32° SE 23:11:00 58° ENE 23:15:21 10° N
Cosmos 1743 Rocket 4.4 23:12:36 29° SE 23:13:55 36° E 23:17:55 10° NNE
Cosmos 2341 Rocket 4.3 23:11:46 24° SSW 23:15:38 63° WNW 23:21:49 10° N
Cosmos 332 Rocket 3.7 23:14:33 10° NNW 23:19:22 82° ENE 23:21:28 34° SSE
USA 267 4.1 23:21:24 26° SSW 23:23:32 32° SW 23:29:17 10° WNW
Meteor 2-3 Rocket 3.7 23:21:02 33° S 23:23:43 79° E 23:29:27 10° NNE
IRIDIUM 104 4.4 23:23:26 32° SSW 23:25:53 69° W 23:31:07 10° N
Cosmos 2151 4.1 23:23:52 22° SW 23:25:59 36° WNW 23:29:58 10° N
Helios 1A 2.9 23:24:53 43° S 23:26:12 82° WSW 23:30:24 10° NNW
Cosmos 405 3.2 23:24:49 10° N 23:28:21 61° ENE 23:29:08 46° SE
Meteor 1-26 Rocket 4.4 23:26:23 10° NNW 23:32:25 77° W 23:35:20 32° S
Cosmos 1452 Rocket 3.5 23:27:31 10° NNW 23:32:48 77° WSW 23:35:06 34° S
CZ-4C R/B 3.3 23:26:55 10° NW 23:33:49 62° NE 23:41:51 10° ESE
SL-8 Rocket 4.3 23:30:59 25° SSW 23:34:35 60° WNW 23:40:42 10° N
COSMOS 2455 2.8 23:28:42 10° NW 23:34:47 87° WSW 23:38:24 26° SSE
Cosmos 1825 4.1 23:32:56 16° WSW 23:34:48 22° WNW 23:37:51 10° NNW
PSLV R/B 4.2 23:31:17 10° NNE 23:35:19 42° E 23:36:34 33° SE
Cosmos 1340 2.8 23:34:23 43° SW 23:35:24 65° WNW 23:39:10 10° N
ALOS 2 3.7 23:35:27 27° SW 23:36:48 32° W 23:40:47 10° NNW
Cosmos 1933 4.0 23:33:22 10° NNW 23:37:10 41° W 23:38:13 34° SW
Cosmos 1408 Rocket 3.6 23:35:56 37° SSW 23:37:32 69° W 23:41:58 10° N
SL-16 R/B 4.3 23:33:33 10° ESE 23:38:36 27° ENE 23:43:41 10° N
Cosmos 1151 Rocket 3.8 23:34:38 10° NNW 23:38:42 40° W 23:40:03 31° SW
Cosmos 1727 Rocket 4.0 23:38:37 10° NNW 23:44:50 73° W 23:48:04 30° S
APEX 3.3 23:42:18 10° NW 23:44:22 37° W 23:44:22 37° W
Cosmos 2369 Rocket 2.2 23:39:44 10° NNW 23:45:22 78° ENE 23:48:49 24° SE
Resurs 1-4 Rocket 4.3 23:42:30 10° NE 23:45:28 15° E 23:48:27 10° ESE
Cosmos 44 3.4 23:43:38 24° WSW 23:46:09 60° NW 23:50:34 10° NNE
Cosmos 1500 Rocket 3.5 23:44:49 40° S 23:46:19 75° E 23:50:43 10° NNE
GP-B 4.3 23:42:57 10° NNW 23:46:57 33° W 23:48:50 23° WSW
SL-4 R/B 3.4 23:48:59 13° WNW 23:48:59 13° WNW 23:49:24 10° NW
Cosmos 371 Rocket 3.9 23:44:22 10° NW 23:48:56 41° WSW 23:50:25 32° SW
ISS -1.1 23:51:00 11° ESE 23:51:00 11° ESE 23:51:15 10° E
SeaSat 1 4.2 23:46:12 10° ENE 23:49:41 19° ESE 23:51:20 16° SE
Helios 1B rocket 2.7 23:50:04 10° NNE 23:54:08 54° E 23:55:23 38° SSE
CREW DRAGON DEMO-1 DEB 3.2 23:54:49 24° W 23:56:29 62° NNW 23:59:33 10° ENE
